Location: Fiume Liscia
(41.1833°N, 9.3167°E)
Time: 18:18:22
(UTC+00:00)

Daily predictions for brighter satellites

Satellite Brightness Start Highest point End
(mag) Time Altitude Azimuth Time Altitude Azimuth Time Altitude Azimuth
BREEZE-M R/B 4.4 16:44:23 10° NW 16:47:27 28° N 16:52:37 10° ENE
Cosmos 44 3.3 16:44:53 10° SW 16:49:19 78° WNW 16:54:04 10° NNE
COSMO-SKYMED 1 3.5 16:47:32 10° NE 16:51:19 28° E 16:55:04 10° SSE
H-2A R/B 3.0 16:47:21 10° N 16:51:22 48° WNW 16:55:18 10° SSW
H-2A R/B 3.8 16:51:43 10° E 16:54:26 14° ENE 16:57:09 10° NNE
Cosmos 1825 Rocket 3.6 16:54:51 10° N 16:59:19 90° W 17:03:42 10° S
Cosmos 1656 3.9 16:54:10 10° S 16:59:26 47° ESE 17:04:50 10° NE
CZ-4B R/B 3.6 16:55:26 10° S 17:01:01 73° WSW 17:06:34 10° NNW
Cosmos 1939 Rocket 3.5 16:58:11 10° SE 17:01:43 32° ENE 17:05:14 10° N
YAOGAN 1 4.0 16:59:52 10° ESE 17:02:45 18° ENE 17:05:40 10° NNE
USA 307 4.5 17:01:06 10° NNW 17:04:24 21° NNE 17:07:24 11° ENE
Okean O Rocket 2.0 17:00:41 10° S 17:05:01 68° WSW 17:09:22 10° NNW
Meteor 2-21 Rocket 4.4 16:59:31 10° N 17:05:43 80° E 17:11:49 10° S
USA 308 4.4 17:06:00 10° NNW 17:09:22 22° NNE 17:12:08 13° ENE
Cosmos 1408 4.1 17:08:39 10° NNE 17:11:07 17° ENE 17:13:35 10° ESE
Cosmos 1726 Rocket 3.6 17:07:23 10° S 17:11:44 82° W 17:16:08 10° N
Timation 2 Rocket 4.1 17:05:07 10° NNW 17:11:49 81° ENE 17:18:40 10° SSE
Helios 1A Rocket 3.7 17:10:22 10° SE 17:14:00 31° ENE 17:17:37 10° N
Cosmos 2228 3.9 17:10:44 10° SSW 17:14:52 53° W 17:19:05 10° N
Cosmos 2227 Rocket 2.5 17:10:15 10° NNW 17:15:40 45° ENE 17:21:04 10° SE
Aureole 3 Rocket 3.1 17:12:30 10° S 17:16:17 64° E 17:21:30 10° NNE
Cosmos 1400 Rocket 2.8 17:12:34 10° S 17:16:40 72° E 17:20:45 10° NNE
Cosmos 1892 3.4 17:13:38 10° NNE 17:17:08 31° ENE 17:20:37 10° SE
ATLAS 2AS CENTAUR R/B 4.4 17:12:59 10° NNW 17:18:00 18° NNE 17:22:02 12° ENE
IRS-1C Rocket 4.1 17:15:15 10° SSE 17:20:24 59° ENE 17:25:35 10° N
BREEZE-M DEB (TANK) 3.8 17:19:52 10° S 17:21:27 14° SE 17:21:57 14° SE
Cosmos 1553 Rocket 4.1 17:16:58 10° S 17:23:10 59° E 17:29:20 10° NNE
Cosmos 1300 3.7 17:21:21 10° SSW 17:25:03 49° W 17:28:47 10° N
Cosmos 968 Rocket 3.8 17:20:17 10° N 17:25:17 44° ENE 17:30:12 10° SE
Atlas Centaur 2 4.0 17:19:53 10° SW 17:27:13 36° S 17:33:48 13° ESE
CZ-4 R/B 1.9 17:24:16 10° SE 17:27:47 33° ENE 17:31:17 10° N
Cosmos 1697 Rocket 3.0 17:23:04 10° S 17:28:19 43° ESE 17:33:36 10° NE
Milstar 3 4.1 17:22:21 10° WSW 17:28:27 29° S 17:34:02 10° ESE
Lacrosse 5 4.1 17:26:45 10° NNW 17:29:05 13° N 17:31:26 10° NNE
Meteor 2-1 Rocket 4.5 17:27:33 10° SSE 17:32:42 43° E 17:37:54 10° NNE
Cosmos 2058 3.4 17:30:24 10° N 17:34:13 36° ENE 17:38:00 10° SE
Meteor 2-15 4.5 17:29:28 10° S 17:35:28 58° E 17:41:28 10° NNE
Cosmos 1825 3.7 17:32:32 10° NNE 17:34:21 19° NE 17:34:21 19° NE
PSLV R/B 3.8 17:31:28 10° NNE 17:35:38 72° ESE 17:39:44 10° S
CZ-2D R/B 3.2 17:32:05 10° SSE 17:35:48 58° ENE 17:39:33 10° N
SAR-Lupe-4 4.1 17:32:19 10° N 17:35:51 60° WNW 17:39:23 10° SSW
Cosmos 44 Rocket 4.0 17:32:14 10° S 17:36:24 31° ESE 17:38:23 23° ENE
SKYMED 2 3.6 17:35:09 10° N 17:39:31 83° WNW 17:43:51 10° SSW
ERS-2 4.2 17:36:32 10° N 17:39:41 28° WNW 17:42:50 10° SW
Cosmos 220 Rocket 4.0 17:36:03 10° S 17:40:19 61° ESE 17:44:41 10° NNE
Okean-O 2.7 17:36:02 10° SSE 17:40:21 55° ENE 17:44:42 10° N
USA 281 4.3 17:35:06 10° S 17:41:22 47° WSW 17:47:41 10° NW
SL-4 R/B 3.5 17:39:17 10° NNW 17:41:53 18° NNE 17:42:47 17° NNE
Cosmos 1346 Rocket 2.9 17:40:05 10° N 17:43:58 48° ENE 17:47:50 10° SSE
SL-08 R/B 4.4 17:41:11 10° N 17:47:22 83° E 17:53:28 10° S
Cosmos 1340 3.0 17:43:42 10° NNW 17:47:28 66° W 17:51:12 10° S
Cosmos 1315 Rocket 2.8 17:45:18 10° S 17:49:08 55° E 17:53:04 10° NNE
GPS 2-04 Rocket1 4.2 17:47:01 10° SW 17:50:22 24° SSE 17:51:22 22° SE
Cosmos 1486 Rocket 3.9 17:45:04 10° NNW 17:50:25 78° ENE 17:55:43 10° SSE
Cosmos 1980 Rocket 2.7 17:46:27 10° SSE 17:51:29 35° ESE 17:53:25 27° ENE
Cosmos 1745 Rocket 4.0 17:45:59 10° N 17:52:16 66° E 17:58:33 10° SSE
Cosmos 1689 Rocket 3.4 17:51:40 10° N 17:54:24 40° WNW 17:57:07 10° SW
USA 305 3.6 17:51:05 10° NW 17:55:04 36° NNE 17:55:45 33° NE
Cosmos 2297 Rocket 2.4 17:49:46 10° NNW 17:55:26 73° WSW 18:01:03 10° SSE
CZ-4B R/B 4.4 17:54:59 10° NNW 17:57:00 16° WNW 17:58:59 10° WSW
In-Cosmos 22 Rocket 4.4 17:51:59 10° NNW 17:57:21 71° W 18:02:48 10° S
CSL-04 Debris 4.3 17:52:43 10° SE 17:57:55 50° ENE 18:03:12 10° N
Cosmos 1503 Rocket 4.1 17:55:17 10° N 18:00:25 54° ENE 18:03:11 26° SE
USA 306 3.5 17:57:32 10° NW 18:01:34 39° NNE 18:01:57 38° NE
Cosmos 1386 Rocket 4.4 17:56:57 10° N 18:03:23 76° E 18:09:41 10° SSE
OAO 2 Rocket 4.0 17:59:41 10° WSW 18:04:21 41° S 18:05:52 32° SE
CZ-2C R/B 3.2 18:00:41 10° SSE 18:06:30 80° ENE 18:12:09 10° N
DMSP B5D1-3 4.4 18:01:28 10° NNE 18:06:36 66° ESE 18:11:43 10° S
Cosmos 2360 4.1 18:05:25 10° SSW 18:11:07 76° ESE 18:15:32 18° NNE
Cosmos 1354 Rocket 4.0 18:07:25 10° NNW 18:12:38 60° ENE 18:14:14 41° SE
Cosmos 1455 2.3 18:09:10 10° SSW 18:12:55 72° W 18:16:44 10° N
CZ-4C R/B 4.2 18:11:15 10° NNW 18:16:12 20° NNE 18:16:59 20° NE
Cosmos 1992 Rocket 4.3 18:11:16 10° SSW 18:16:26 68° WNW 18:21:38 10° NNE
Meteor 2-10 Rocket 4.0 18:13:19 10° SSW 18:18:35 62° WNW 18:23:41 10° N
Cosmos 1709 Rocket 4.0 18:15:35 10° N 18:21:56 63° E 18:27:44 12° SSE
Cosmos 2278 3.6 18:17:15 10° SSW 18:22:52 69° ESE 18:24:51 41° NE
Cosmos 1076 Rocket 3.4 18:19:07 10° N 18:23:22 83° W 18:25:01 37° S
Geosat 4.1 18:29:49 27° NNE 18:32:35 74° WNW 18:37:34 10° SW
H-2A R/B 2.1 18:27:41 10° SSE 18:33:04 85° WSW 18:38:34 10° NNW
Cosmos 883 Rocket 4.4 18:27:29 10° S 18:33:39 89° W 18:39:48 10° N
Cosmos 2082 3.8 18:29:40 10° NNW 18:35:25 77° WSW 18:38:04 33° S
SJ-11-01 4.3 18:34:07 41° S 18:35:43 76° WSW 18:40:24 10° NNW
ARGOS 3.0 18:36:01 68° SE 18:36:37 77° ENE 18:42:04 10° N
YAOGAN 1 3.7 18:34:26 10° S 18:38:31 42° W 18:42:38 10° NNW
Cosmos 2315 Rocket 3.8 18:34:51 10° S 18:41:04 85° E 18:47:17 10° N
GEOS 3 Rocket 3.6 18:41:31 68° NNE 18:41:31 68° NNE 18:46:39 10° NNW
SeaSat 1 3.3 18:43:28 38° N 18:43:28 38° N 18:46:40 10° NNW
USA 307 4.0 18:40:44 10° NW 18:43:36 41° NW 18:43:36 41° NW
Cosmos 2369 4.5 18:41:30 10° SW 18:47:03 51° WNW 18:51:18 17° N
NOSS 3-4 (A) 4.0 18:41:50 10° NNW 18:48:36 51° NE 18:48:36 51° NE
NOSS 3-4 (C) 4.0 18:41:57 10° NNW 18:48:40 51° NE 18:48:40 51° NE
USA 308 4.2 18:45:39 10° NW 18:48:20 37° NW 18:48:20 37° NW
USA 215 4.1 18:54:35 34° NNE 18:54:35 34° NNE 19:00:16 10° NW
CSL-04 Rocket 4.3 18:50:59 10° S 18:56:24 54° W 19:01:49 10° NNW
Cosmos 2227 Rocket 4.2 18:54:51 10° NW 18:59:26 26° WSW 19:04:00 10° SSW
CZ-4 R/B 4.1 19:00:23 10° SW 19:02:55 17° W 19:05:25 10° NW
Cosmos 2263 Rocket 3.6 18:58:25 10° NNW 19:01:09 28° N 19:01:09 28° N
ATLAS 2AS CENTAUR R/B 3.2 19:03:31 10° NNW 19:09:28 48° NNE 19:09:28 48° NNE
BREEZE-M R/B 4.3 19:05:51 10° NW 19:10:34 67° N 19:10:34 67° N
Cosmos 1697 Rocket 4.5 19:07:38 10° WSW 19:12:25 28° NW 19:16:32 13° N
Lacrosse 5 4.1 19:09:58 10° NNW 19:11:26 16° NNW 19:11:26 16° NNW
Atlas Centaur 2 3.8 19:08:38 10° WSW 19:16:19 38° S 19:16:24 38° S
Cosmos 1980 Rocket 3.6 19:30:23 10° WSW 19:35:17 34° WNW 19:35:17 34° WNW
CZ-4C R/B 4.2 19:58:52 10° NNW 20:02:11 30° NNW 20:02:11 30° NNW
